Location: Sternwarte auf dem Internationalen Platz Vogelsang IP
(50.5721°N, 6.4398°E)
Time: 11:10:29
(UTC+01:00)

ACS3 Solar Sail - Pass Details

Date: 19 November 2025
Orbit: 888 x 1003 km, 97.3° (Epoch: 07 December)

Event Time Altitude Azimuth Distance (km) Brightness Sun altitude
Rises 04:25:59 0° 10° (N) 3,568 5.0 -32.9°
Reaches altitude 10° 04:28:24 10° 8° (N) 2,638 4.2 -32.5°
Enters shadow 04:30:50 26° 2° (N) 1,755 3.2 -32.1°
